Temperature
29 26 26 26 27 27 27 26 26 26 27 26 25 24 25 25 25 24 24 23 23 22 22 22 21 21 21 20 20 20 19 19 19 19 18 18 18 18 18 18 18 18 18 18
26 26 28 29 29 29 28 27 26 27 27 26 25 25 25 25 25 25 24 23 23 22 22 22 21 21 21 20 20 20 19 19 19 19 19 18 18 18 18 18 18 18 18 18
27 27 29 29 29 28 28 27 26 26 26 26 25 24 24 25 25 25 24 24 23 23 23 22 21 21 21 21 20 20 20 19 19 19 19 18 18 18 18 18 18 18 18 18
27 28 30 29 29 29 27 29 28 27 25 23 24 22 23 23 23 24 24 23 23 23 23 22 22 21 21 21 21 20 20 20 19 19 19 19 19 19 18 18 18 18 18 18
27 29 29 29 29 30 28 29 28 27 24 23 23 22 22 22 22 23 23 24 23 24 23 23 22 22 22 21 21 21 20 20 20 19 19 19 19 19 19 18 18 18 18 18
28 29 30 30 30 30 29 28 26 23 22 22 23 22 22 21 22 23 24 24 24 24 24 23 23 22 22 21 21 21 21 20 20 19 19 19 19 19 19 18 18 18 18 18
27 28 29 30 29 29 28 24 23 23 21 22 22 22 22 23 23 24 24 24 24 24 24 23 23 22 22 22 22 21 21 21 20 20 20 20 19 19 19 19 18 18 18 18
26 26 28 29 29 27 27 24 23 24 22 22 22 22 23 24 24 25 25 25 25 24 24 24 24 23 23 22 22 22 21 21 21 20 20 20 20 19 19 19 18 18 18 18
25 25 28 29 30 29 27 25 23 22 22 21 21 22 23 24 24 24 24 24 24 24 25 25 24 24 24 23 23 22 22 21 21 21 20 20 20 19 19 19 18 18 18 18
25 26 27 28 30 29 27 25 22 22 22 22 22 22 22 23 23 23 23 23 24 24 24 24 24 24 24 23 23 22 22 22 21 21 21 20 20 20 19 19 19 19 18 18
24 24 25 26 28 28 27 26 22 20 21 21 21 22 23 23 23 22 23 23 24 24 24 24 24 24 24 23 23 23 22 22 22 21 21 20 20 20 19 19 19 19 19 18
24 22 23 25 26 27 27 25 22 22 22 20 21 22 24 23 23 23 23 23 24 24 24 24 24 24 24 23 23 23 22 22 22 21 21 21 20 20 20 19 19 19 19 18
24 21 22 23 24 25 26 26 23 21 20 20 21 23 23 23 23 24 24 24 24 24 24 24 24 24 24 23 23 23 23 22 22 21 21 21 20 20 20 20 19 19 19 18
23 20 21 23 23 24 25 26 25 22 21 21 22 23 22 22 22 23 24 24 24 24 24 24 24 24 23 23 23 23 23 22 22 22 21 21 20 20 20 20 20 19 19 19
21 21 23 23 24 26 26 26 26 25 23 22 23 22 22 22 22 23 24 24 24 24 24 24 24 24 24 23 23 23 23 22 22 22 21 21 21 20 20 20 20 19 19 18
19 21 22 23 25 25 25 25 25 25 24 23 23 22 22 22 23 23 23 23 23 23 23 23 23 23 23 23 23 23 23 22 22 22 21 21 21 20 20 20 19 19 19 18
19 20 20 21 22 24 23 24 24 23 23 23 22 21 21 21 21 22 23 23 23 22 22 22 22 23 23 23 23 23 23 22 22 22 21 21 21 20 20 20 19 19 19 18
19 18 17 19 22 23 22 23 24 23 22 22 21 21 21 21 22 22 23 23 23 23 22 22 22 23 23 23 22 22 22 22 22 21 21 21 20 20 20 20 19 19 18 18
18 18 18 18 20 21 22 23 23 21 21 21 21 21 21 22 21 21 22 23 23 23 22 22 23 23 23 22 22 22 22 22 21 21 21 21 20 20 20 20 19 19 18 18
18 17 17 18 20 20 21 22 23 21 20 21 21 20 20 21 19 19 22 22 22 22 22 22 22 22 22 22 21 21 21 21 21 21 20 20 20 20 20 19 19 19 18 17
18 17 17 18 19 19 20 22 22 20 19 20 21 21 21 20 20 21 21 21 22 22 22 22 22 22 21 21 21 21 21 21 21 20 20 20 19 19 19 19 18 18 17 17
17 17 17 16 18 19 20 20 19 19 20 20 20 21 21 20 20 20 20 20 20 21 21 21 21 21 21 21 21 20 20 20 20 19 19 19 19 18 18 18 18 17 17 17
17 17 16 16 16 18 19 19 20 20 20 20 20 20 20 20 20 20 20 20 20 20 20 20 20 20 20 20 20 20 20 19 19 19 19 18 18 18 18 17 17 17 16 16
17 16 15 15 16 17 18 19 19 20 19 19 20 20 20 19 19 19 19 19 19 19 19 19 19 19 19 19 19 19 19 19 19 18 18 18 17 17 17 17 17 16 16 16
16 15 15 15 16 17 18 18 18 19 19 19 19 19 19 19 19 19 18 18 18 18 18 18 18 18 18 18 18 19 19 19 18 18 18 17 17 17 16 16 16 16 16 15
15 15 14 14 16 15 17 18 18 18 18 18 18 18 18 18 18 18 18 18 18 18 18 18 18 18 18 18 18 18 18 18 18 17 17 17 17 16 16 16 15 15 15 15
Wind_Speed
5 3 3 7 6 7 6 4 4 4 5 4 5 6 9 11 12 12 12 12 12 11 9 9 9 9 8 7 6 6 6 5 4 3 3 2 1 1 1 1 4 5 5 5
5 5 9 7 5 4 5 5 4 2 3 4 3 4 7 10 12 13 15 14 13 11 9 9 9 9 9 8 7 6 6 5 5 4 3 3 3 2 2 1 2 4 5 5
6 9 6 3 3 2 2 7 8 5 2 3 4 3 1 3 4 7 12 13 13 15 14 12 11 9 9 9 8 8 6 6 5 4 3 2 2 1 1 1 1 2 4 4
6 8 5 4 5 4 4 7 9 9 6 1 3 2 4 3 3 6 8 10 12 12 12 12 12 11 10 10 9 7 7 6 5 5 5 5 4 3 3 2 2 2 2 3
7 6 5 6 8 4 6 6 6 7 7 3 2 4 5 1 3 7 9 11 12 12 13 13 13 13 11 10 9 7 7 6 5 5 6 5 3 3 2 2 2 2 1 2
8 6 5 6 5 2 2 5 6 6 5 2 3 4 5 4 6 7 8 9 11 13 13 12 12 11 9 9 9 8 7 6 6 6 6 6 6 5 4 3 2 1 0 1
7 8 6 2 2 4 4 7 4 4 4 3 2 2 7 7 6 8 9 10 11 13 13 13 12 12 11 11 10 9 9 7 6 6 6 6 6 6 6 4 3 2 1 1
4 7 6 4 6 6 3 9 7 5 4 3 1 3 7 6 5 6 6 8 11 12 13 14 14 14 13 12 11 10 9 8 7 7 6 5 5 4 4 4 4 3 3 2
6 7 7 6 6 7 4 4 8 7 3 2 2 5 7 3 0 3 5 7 10 13 13 14 14 14 13 12 12 11 11 9 8 8 7 6 5 5 5 4 3 2 2 2
8 4 7 6 1 1 7 7 6 6 5 1 2 4 5 5 3 4 5 6 8 10 11 12 12 13 12 12 11 10 11 10 9 8 7 6 5 5 5 4 4 3 3 2
7 5 7 4 2 5 1 3 5 6 7 7 3 6 6 9 8 7 6 6 7 9 9 10 10 11 11 10 10 10 10 9 8 9 7 6 5 5 5 5 4 4 3 3
4 6 4 7 6 4 6 6 7 6 4 5 5 6 5 7 6 7 7 7 7 8 8 9 10 10 10 11 11 11 10 10 9 8 8 7 6 6 6 5 4 4 4 3
4 6 1 7 7 6 1 2 6 7 6 5 5 5 2 4 4 5 6 7 7 7 7 7 7 8 9 10 10 11 11 11 9 9 8 7 6 6 6 6 5 5 4 3
5 5 6 8 7 3 3 3 1 6 5 5 6 5 2 4 5 5 6 8 8 7 8 8 8 7 7 7 8 9 10 10 10 9 9 8 8 8 7 6 5 5 5 4
6 4 2 3 3 1 1 3 2 2 6 7 7 7 7 7 7 6 6 6 6 6 7 8 8 7 7 6 7 8 9 9 10 10 10 10 8 8 7 6 5 5 5 5
5 4 3 4 4 5 4 4 3 3 4 7 7 2 2 2 4 5 5 6 6 6 6 6 6 7 7 7 7 8 8 9 10 10 9 8 8 8 7 7 6 5 5 4
3 4 4 2 4 5 4 4 2 3 2 6 5 4 3 5 5 6 5 5 4 4 5 6 7 7 8 8 8 9 9 9 9 9 9 9 9 8 8 8 7 6 5 5
4 4 4 2 5 1 5 1 6 7 5 5 6 5 6 7 5 4 4 4 3 3 4 5 5 5 5 5 5 6 8 8 8 8 8 9 9 8 8 7 7 6 5 5
6 7 4 3 2 3 4 3 2 5 3 4 7 6 4 5 5 2 1 3 3 2 3 4 5 5 4 4 5 5 6 7 7 7 7 8 9 9 8 8 8 6 6 5
6 7 6 4 3 4 5 5 1 8 2 2 4 5 4 4 3 3 3 1 1 1 2 2 2 3 4 4 5 6 6 6 7 7 7 6 7 8 9 8 7 5 6 6
4 4 4 4 3 4 5 6 3 4 4 3 1 4 4 2 5 5 2 1 0 2 3 2 3 4 4 4 6 6 5 6 7 6 6 6 6 7 7 6 5 5 5 5
4 4 3 4 3 5 5 4 3 4 2 2 1 2 4 3 2 3 3 1 1 2 3 3 3 2 2 3 5 5 4 5 4 5 5 5 5 6 6 6 5 5 6 6
3 5 5 5 4 3 3 4 2 4 4 3 2 3 5 4 3 3 2 2 2 2 2 2 2 1 0 1 4 5 4 3 4 5 5 4 4 4 4 5 5 5 5 5
4 3 4 3 2 2 5 5 5 6 5 4 3 4 5 4 3 2 1 1 1 1 1 1 1 1 1 2 3 4 4 4 5 5 5 5 5 4 3 4 4 4 4 4
3 3 3 3 1 4 6 5 5 6 7 6 5 4 4 5 3 2 1 1 1 1 1 0 1 2 3 3 2 3 4 5 6 6 5 5 4 4 4 3 2 3 3 5
2 1 3 3 3 2 2 2 3 4 4 4 4 4 4 3 2 2 2 2 1 1 1 1 1 2 2 2 2 2 4 6 6 5 5 4 4 4 4 3 2 3 1 2
Wind_Direction
330 58 253 239 218 185 158 160 194 223 188 164 180 180 184 182 179 177 171 169 170 177 174 163 160 156 149 146 145 148 148 160 150 143 141 141 155 164 168 177 171 170 166 164
0 278 241 229 219 168 154 178 196 229 170 166 171 201 192 182 187 185 177 177 175 173 167 164 164 163 161 161 160 158 162 167 167 171 168 165 160 172 176 171 155 168 167 163
231 248 251 236 243 203 185 184 192 181 111 82 97 346 248 205 179 179 181 179 176 176 175 170 167 172 169 170 171 171 173 173 177 172 149 130 100 79 82 133 185 186 170 167
249 255 256 258 248 204 239 217 177 158 126 177 157 189 269 217 194 187 184 179 184 183 176 173 171 174 180 181 175 169 170 173 176 166 156 156 160 175 196 182 183 193 184 173
252 249 240 243 246 212 217 199 156 139 127 100 56 125 280 292 220 216 200 185 188 186 179 177 177 180 183 180 174 170 167 170 171 166 166 161 166 178 172 153 155 180 201 181
255 260 227 225 253 216 152 83 66 65 81 94 240 146 254 220 218 217 195 185 189 186 181 176 178 173 174 175 171 168 168 176 176 173 170 168 172 169 155 151 154 167 177 175
298 296 279 249 305 319 67 87 48 9 27 236 252 141 245 242 226 206 195 190 190 185 178 174 174 173 175 174 174 172 174 182 181 176 176 173 172 167 167 169 173 169 169 190
227 279 271 239 195 209 201 136 155 188 200 244 309 240 260 251 221 192 188 180 183 184 184 179 180 179 179 177 176 174 180 186 184 180 181 176 168 164 167 171 172 174 180 193
192 247 271 254 217 172 183 169 164 136 125 101 282 278 301 298 127 157 165 161 180 186 186 183 181 182 179 179 180 180 183 187 186 183 176 173 169 163 167 168 164 166 175 178
171 237 281 282 324 289 164 157 98 114 139 171 270 254 243 245 200 189 173 173 180 181 183 180 182 182 179 180 181 179 181 186 186 181 178 180 178 171 163 156 164 169 176 171
156 178 286 327 231 225 149 108 110 118 144 148 197 261 229 203 190 181 181 184 178 176 172 176 180 181 178 175 176 175 174 176 178 177 175 167 166 161 153 155 161 159 153 153
164 145 241 264 259 211 177 175 145 147 189 156 159 256 249 192 182 177 174 177 173 172 166 170 176 177 176 179 179 177 177 177 180 177 169 168 165 161 160 163 168 157 150 153
128 120 109 328 331 349 26 175 148 135 127 147 158 255 313 145 161 188 175 161 166 167 158 155 160 171 178 181 179 178 180 180 176 169 167 168 169 168 169 169 167 160 155 148
119 105 155 194 222 255 305 328 102 125 142 171 190 195 211 174 183 185 170 161 169 169 164 164 167 177 181 182 175 175 180 178 174 168 167 173 178 177 174 169 164 161 157 149
89 104 132 193 216 46 350 337 5 119 165 166 188 182 206 197 185 173 157 150 141 157 166 169 173 179 179 179 183 176 176 177 174 171 175 184 184 176 169 167 168 163 158 156
58 100 68 16 20 39 16 357 26 63 111 129 127 145 222 169 127 125 132 137 132 148 164 168 176 182 184 182 185 181 179 179 174 176 183 181 177 174 175 175 171 162 158 157
45 91 81 334 345 40 350 321 85 76 88 137 147 186 121 101 116 132 125 126 129 143 164 168 179 187 192 190 186 185 182 174 173 177 179 178 176 179 182 181 173 171 172 167
120 96 108 78 48 205 243 304 99 85 57 93 117 121 121 138 144 124 123 138 146 151 152 178 186 187 193 192 184 176 166 162 166 174 178 180 178 181 179 176 180 181 175 175
143 129 108 109 133 275 301 331 76 106 36 64 109 108 110 131 92 62 144 155 166 180 185 192 186 179 171 170 168 152 160 162 165 179 189 186 181 179 178 182 186 183 177 184
77 99 111 117 144 216 256 313 75 99 55 334 112 128 140 110 105 245 256 162 112 118 161 159 141 131 143 161 154 146 162 169 182 190 192 182 178 178 182 184 183 182 178 183
65 67 118 143 183 250 277 308 50 107 213 268 156 148 137 151 198 208 205 245 134 112 132 135 138 142 161 164 154 155 165 188 197 187 174 171 182 183 182 179 178 175 174 171
150 143 166 147 173 247 305 23 98 184 192 111 80 94 102 113 118 110 105 78 33 58 92 121 124 138 153 149 148 161 186 200 177 163 165 172 181 180 177 172 174 173 171 172
152 176 169 169 200 253 31 100 135 129 94 59 63 76 94 84 70 70 73 64 51 57 60 67 105 116 19 161 156 174 204 186 168 159 168 171 171 168 165 170 176 177 177 179
343 42 94 78 31 35 44 51 48 61 63 52 76 84 88 85 69 61 44 23 5 22 57 62 98 156 240 231 183 183 179 163 160 163 168 169 167 167 162 166 172 177 181 184
311 20 68 87 17 27 22 38 51 47 43 39 34 47 61 64 47 38 359 326 294 292 268 202 193 213 227 221 204 180 168 158 165 169 169 169 168 162 156 155 163 177 192 196
311 142 138 190 215 164 262 324 41 44 25 22 34 21 23 49 35 9 315 283 274 277 274 257 246 219 215 199 208 205 168 158 161 168 172 172 171 159 156 146 97 46 107 176
Height
1499 1505 1511 1507 1504 1507 1511 1519 1523 1517 1511 1517 1521 1523 1523 1523 1526 1528 1530 1531 1533 1535 1536 1538 1540 1541 1542 1542 1543 1543 1543 1544 1544 1545 1545 1546 1546 1547 1548 1548 1548 1549 1550 1550
1506 1509 1499 1497 1498 1501 1507 1517 1520 1515 1510 1516 1522 1523 1521 1521 1523 1524 1526 1529 1531 1533 1536 1538 1539 1540 1541 1541 1542 1542 1543 1543 1544 1545 1545 1546 1546 1546 1547 1547 1548 1548 1549 1549
1508 1501 1493 1497 1500 1505 1508 1514 1516 1518 1515 1516 1524 1531 1526 1523 1523 1525 1525 1527 1529 1530 1533 1535 1537 1538 1540 1540 1541 1542 1542 1543 1543 1544 1545 1545 1545 1545 1546 1546 1547 1547 1548 1548
1501 1493 1493 1497 1500 1502 1512 1500 1503 1510 1523 1534 1530 1549 1533 1526 1525 1524 1525 1526 1528 1529 1531 1533 1535 1537 1538 1540 1540 1541 1542 1542 1543 1543 1544 1544 1544 1544 1545 1546 1546 1547 1547 1548
1499 1492 1493 1497 1494 1494 1500 1494 1500 1508 1522 1535 1534 1545 1540 1528 1528 1523 1522 1524 1525 1527 1528 1531 1533 1534 1537 1539 1540 1541 1542 1542 1542 1543 1543 1544 1544 1544 1545 1545 1546 1546 1547 1547
1491 1486 1487 1487 1485 1487 1491 1498 1507 1517 1529 1547 1538 1543 1542 1529 1524 1521 1519 1521 1522 1524 1526 1529 1531 1533 1535 1537 1539 1540 1541 1541 1542 1542 1543 1543 1543 1544 1544 1545 1545 1546 1546 1546
1497 1489 1483 1483 1489 1490 1494 1517 1539 1544 1554 1552 1536 1539 1536 1517 1513 1513 1514 1517 1519 1521 1524 1526 1529 1531 1533 1535 1537 1538 1540 1540 1541 1542 1542 1542 1543 1543 1544 1544 1545 1545 1545 1546
1509 1508 1487 1482 1487 1496 1497 1512 1539 1552 1557 1553 1539 1541 1524 1508 1506 1508 1511 1512 1515 1518 1521 1523 1526 1529 1531 1533 1535 1537 1538 1539 1540 1541 1542 1542 1543 1543 1543 1544 1544 1545 1545 1545
1506 1506 1483 1479 1478 1484 1497 1507 1510 1532 1543 1553 1547 1534 1518 1506 1505 1506 1509 1511 1513 1516 1518 1521 1524 1526 1528 1531 1533 1534 1536 1537 1539 1540 1541 1542 1542 1542 1543 1543 1543 1544 1544 1544
1490 1500 1487 1478 1476 1479 1485 1495 1515 1531 1549 1558 1549 1540 1532 1514 1509 1506 1508 1510 1512 1514 1517 1520 1522 1524 1526 1529 1531 1533 1534 1536 1537 1539 1540 1541 1541 1542 1542 1542 1543 1543 1543 1543
1483 1499 1495 1487 1487 1490 1490 1497 1510 1527 1532 1551 1557 1542 1509 1507 1505 1506 1506 1508 1511 1513 1515 1518 1521 1523 1525 1527 1529 1531 1532 1534 1536 1537 1538 1539 1540 1541 1541 1542 1542 1542 1542 1542
1481 1496 1505 1494 1481 1477 1483 1492 1505 1524 1532 1536 1543 1535 1498 1499 1500 1502 1504 1508 1510 1512 1514 1516 1518 1521 1523 1525 1527 1529 1531 1532 1534 1536 1537 1538 1539 1540 1540 1540 1541 1541 1541 1541
1480 1496 1513 1510 1500 1487 1486 1486 1494 1507 1522 1533 1539 1527 1498 1498 1500 1501 1502 1505 1508 1510 1512 1514 1517 1519 1521 1523 1525 1527 1529 1530 1532 1534 1536 1537 1538 1538 1539 1539 1540 1540 1540 1540
1474 1494 1507 1515 1509 1496 1493 1488 1489 1501 1519 1525 1522 1516 1505 1501 1502 1502 1502 1503 1506 1509 1511 1513 1515 1517 1519 1521 1523 1525 1527 1529 1530 1532 1533 1535 1536 1537 1538 1538 1538 1538 1538 1538
1477 1494 1493 1493 1489 1487 1488 1488 1487 1494 1501 1511 1511 1509 1504 1500 1500 1501 1503 1504 1505 1507 1509 1510 1512 1515 1517 1519 1521 1522 1524 1526 1528 1530 1531 1532 1534 1535 1536 1536 1536 1536 1536 1536
1482 1492 1493 1495 1487 1487 1490 1488 1487 1490 1493 1499 1502 1505 1498 1499 1499 1501 1502 1503 1505 1507 1508 1509 1511 1512 1514 1516 1518 1519 1521 1523 1525 1527 1528 1530 1532 1533 1533 1534 1534 1534 1534 1534
1489 1494 1503 1507 1495 1492 1502 1494 1491 1493 1493 1495 1504 1503 1497 1499 1499 1499 1500 1502 1504 1506 1508 1508 1510 1511 1512 1513 1514 1516 1518 1520 1522 1523 1525 1527 1528 1529 1530 1531 1532 1532 1532 1532
1488 1497 1507 1510 1505 1516 1505 1488 1487 1491 1493 1492 1494 1496 1496 1497 1499 1500 1501 1502 1503 1504 1506 1507 1508 1508 1509 1510 1512 1513 1515 1517 1518 1520 1521 1523 1525 1526 1527 1528 1528 1529 1529 1529
1481 1492 1506 1515 1517 1511 1497 1489 1489 1494 1500 1494 1495 1496 1496 1497 1498 1500 1502 1502 1503 1504 1504 1505 1505 1506 1507 1508 1509 1511 1512 1513 1515 1517 1518 1519 1521 1522 1523 1524 1525 1525 1526 1526
1483 1488 1503 1512 1515 1518 1502 1488 1485 1490 1505 1497 1494 1495 1496 1496 1503 1502 1500 1501 1502 1502 1503 1503 1503 1504 1504 1506 1508 1509 1509 1511 1512 1513 1514 1516 1517 1518 1519 1520 1521 1522 1522 1523
1495 1499 1505 1511 1514 1508 1494 1487 1485 1504 1507 1496 1494 1494 1494 1496 1498 1498 1498 1498 1498 1499 1500 1500 1501 1502 1502 1503 1505 1505 1506 1507 1509 1511 1512 1512 1514 1515 1515 1516 1518 1518 1519 1519
1498 1504 1508 1512 1516 1513 1491 1489 1494 1498 1494 1494 1494 1494 1494 1495 1495 1495 1496 1497 1497 1497 1497 1497 1498 1498 1499 1500 1501 1502 1503 1504 1506 1507 1508 1509 1510 1511 1512 1513 1513 1514 1515 1515
1494 1496 1499 1504 1507 1498 1492 1492 1493 1492 1493 1494 1494 1494 1494 1494 1494 1495 1495 1496 1497 1496 1495 1496 1496 1496 1497 1498 1499 1499 1500 1501 1502 1503 1505 1506 1506 1507 1508 1509 1510 1511 1511 1511
1492 1489 1494 1500 1499 1496 1494 1493 1493 1493 1493 1494 1494 1493 1493 1493 1493 1494 1494 1494 1494 1494 1494 1494 1494 1494 1494 1496 1496 1497 1497 1498 1499 1500 1501 1502 1503 1504 1504 1505 1506 1506 1507 1507
1495 1493 1496 1500 1498 1496 1496 1496 1495 1494 1495 1494 1494 1494 1493 1493 1493 1493 1493 1493 1493 1493 1493 1492 1491 1491 1492 1493 1494 1494 1495 1495 1496 1496 1497 1498 1499 1500 1500 1501 1502 1503 1504 1505
1495 1496 1499 1501 1498 1498 1497 1496 1495 1494 1494 1494 1493 1493 1493 1492 1491 1491 1491 1490 1490 1490 1490 1489 1489 1488 1489 1489 1490 1490 1491 1492 1492 1492 1493 1494 1495 1495 1496 1497 1498 1499 1500 1501